Ely, NV

3:05 AM PDT on June 26, 2017 (GMT -0700)
Ely

Weather History for KELY - July, 2012

Change the Weather History Date:

Saturday, July 14, 2012

  Actual Average Record
Temperature  
Mean Temperature 67 °F 68 °F  
Max Temperature 78 °F 88 °F 97 °F (2003)
Min Temperature 55 °F 48 °F 36 °F (1962)
Degree Days  
Heating Degree Days 0 1  
Month to date heating degree days 0 17  
Since 1 June heating degree days 116 192  
Since 1 July heating degree days 0 17  
Cooling Degree Days 2 4  
Month to date cooling degree days 62 42  
Year to date cooling degree days 115 66  
Since 1 June cooling degree days 115 65  
Growing Degree Days 16 (Base 50)    
Moisture  
Dew Point 53 °F    
Average Humidity 72    
Maximum Humidity 100    
Minimum Humidity 43    
Precipitation  
Precipitation 0.26 in 0.02 in 0.35 in (1899)
Month to date precipitation 1.17 0.22  
Year to date precipitation 5.05 5.32  
Snow  
Snow 0.00 in 0.00 in 0.00 in (1893)
Month to date snowfall 0.0 0.0  
Since 1 June snowfall T 0.1  
Since 1 July snowfall 0.0 0.0  
Snow Depth 0.00 in    
Sea Level Pressure  
Sea Level Pressure 30.05 in    
Wind  
Wind Speed 9 mph (South)    
Max Wind Speed 30 mph    
Max Gust Speed 39 mph    
Visibility 10 miles    
Events Rain , Thunderstorm    
T = Trace of Precipitation, MM = Missing Value Source: NWS Daily Summary

Daily Weather History Graph

Daily Weather History Graph

Search for Another Location

Airport or City:

Trip Planner

Search our weather history database for the weather conditions in past years. The results will help you decide how hot, cold, wet, or windy it might be!

Date:

Astronomy

Jul. 14, 2012 Rise Set
Actual Time 5:24 AM PDT 8:05 PM PDT
Civil Twilight 4:53 AM PDT 8:36 PM PDT
Nautical Twilight 4:14 AM PDT 9:15 PM PDT
Astronomical Twilight 3:29 AM PDT 9:59 PM PDT
Moon 1:41 AM PDT (7/14) 4:33 PM PDT (7/14)
Length of Visible Light 15h 43m
Length of Day
14h 40m
Waning Crescent, 18% of the Moon is Illuminated
Jul 14
Waning Crescent
Jul 18
New
Jul 26
First Quarter
Aug 1
Full
Aug 9
Last Quarter

Hourly Weather History & Observations

Time (PDT) Temp. Dew Point Humidity Pressure Visibility Wind Dir Wind Speed Gust Speed Precip Events Conditions
12:08 AM 57.2 °F 55.4 °F 94% 30.20 in 10.0 mi WNW 4.6 mph - N/A Thunderstorm Thunderstorm
12:40 AM 57.2 °F 55.4 °F 94% 30.20 in 10.0 mi West 3.5 mph - N/A   Mostly Cloudy
12:53 AM 57.0 °F 55.9 °F 96% 29.94 in 10.0 mi West 6.9 mph - N/A   Overcast
1:04 AM 57.2 °F 55.4 °F 94% 30.22 in 10.0 mi Calm Calm - 0.00 in Rain , Thunderstorm Light Thunderstorms and Rain
1:53 AM 55.4 °F 55.4 °F 100% 30.20 in 8.0 mi NNE 3.5 mph - N/A Rain , Thunderstorm Light Thunderstorms and Rain
2:09 AM 55.4 °F 55.4 °F 100% 30.19 in 10.0 mi NNE 3.5 mph - N/A Rain , Thunderstorm Light Thunderstorms and Rain
2:53 AM 55.9 °F 55.0 °F 97% 29.89 in 10.0 mi NE 3.5 mph - 0.02 in   Mostly Cloudy
3:53 AM 55.4 °F 55.4 °F 100% 30.15 in 10.0 mi SE 4.6 mph - N/A   Overcast
4:53 AM 55.0 °F 55.0 °F 100% 29.90 in 10.0 mi SSW 6.9 mph - N/A   Overcast
5:53 AM 55.9 °F 55.0 °F 97% 29.91 in 10.0 mi SSW 3.5 mph - 0.04 in Rain Light Rain
6:39 AM 55.4 °F 55.4 °F 100% 30.17 in 10.0 mi Calm Calm - 0.00 in   Overcast
6:53 AM 55.9 °F 55.0 °F 97% 29.92 in 10.0 mi Calm Calm - 0.00 in   Overcast
7:53 AM 57.0 °F 55.9 °F 96% 29.93 in 10.0 mi ESE 3.5 mph - N/A   Overcast
8:12 AM 57.2 °F 55.4 °F 94% 30.19 in 10.0 mi SSE 3.5 mph - N/A   Overcast
8:27 AM 57.2 °F 55.4 °F 94% 30.19 in 10.0 mi Calm Calm - N/A   Overcast
8:53 AM 57.9 °F 55.9 °F 93% 29.97 in 10.0 mi SSE 3.5 mph - N/A   Overcast
9:12 AM 59.0 °F 57.2 °F 94% 30.19 in 10.0 mi South 3.5 mph - N/A   Overcast
9:53 AM 61.0 °F 55.9 °F 83% 29.95 in 10.0 mi SSE 4.6 mph - N/A   Overcast
10:53 AM 63.0 °F 55.9 °F 78% 29.96 in 10.0 mi Calm Calm - N/A   Overcast
11:53 AM 63.0 °F 55.0 °F 75% 29.96 in 10.0 mi Calm Calm - 0.00 in   Overcast
12:53 PM 68.0 °F 54.0 °F 61% 29.94 in 10.0 mi Calm Calm - N/A   Overcast
1:53 PM 73.0 °F 51.1 °F 46% 29.90 in 10.0 mi Calm Calm - N/A   Clear
2:53 PM 73.9 °F 54.0 °F 50% 29.87 in 10.0 mi South 6.9 mph 16.1 mph N/A   Partly Cloudy
3:53 PM 75.0 °F 52.0 °F 44% 29.85 in 10.0 mi South 8.1 mph - N/A   Clear
4:45 PM 77.0 °F 51.8 °F 41% 30.12 in 10.0 mi South 8.1 mph - N/A Thunderstorm Thunderstorm
4:53 PM 77.0 °F 50.0 °F 39% 30.12 in 10.0 mi SE 9.2 mph - N/A Thunderstorm Thunderstorm
5:07 PM 77.0 °F 51.8 °F 41% 30.11 in 10.0 mi South 6.9 mph - N/A   Clear
5:18 PM 77.0 °F 50.0 °F 39% 30.12 in 10.0 mi South 6.9 mph - N/A Thunderstorm Thunderstorm
5:38 PM 69.8 °F 48.2 °F 46% 30.14 in 10.0 mi NW 29.9 mph 38.0 mph N/A   Mostly Cloudy
5:45 PM 66.2 °F 46.4 °F 49% 30.15 in 10.0 mi NW 28.8 mph 39.1 mph N/A Thunderstorm Thunderstorm
5:53 PM 64.0 °F 48.0 °F 56% 29.92 in 10.0 mi WNW 24.2 mph 35.7 mph N/A Thunderstorm Thunderstorm
6:00 PM 64.4 °F 48.2 °F 56% 30.17 in 10.0 mi NW 20.7 mph 35.7 mph N/A   Mostly Cloudy
6:08 PM 64.4 °F 48.2 °F 56% 30.20 in 10.0 mi NNW 17.3 mph 28.8 mph N/A Thunderstorm Mostly Cloudy
6:31 PM 62.6 °F 50.0 °F 63% 30.19 in 10.0 mi NNW 15.0 mph 19.6 mph N/A   Mostly Cloudy
6:38 PM 64.4 °F 48.2 °F 56% 30.19 in 10.0 mi NNE 20.7 mph 24.2 mph 0.00 in Rain , Thunderstorm Light Thunderstorms and Rain
6:53 PM 64.0 °F 48.9 °F 58% 29.96 in 10.0 mi North 18.4 mph 21.9 mph 0.00 in Rain Light Rain
7:08 PM 62.6 °F 50.0 °F 63% 30.18 in 10.0 mi NNE 15.0 mph - 0.00 in Thunderstorm Thunderstorm
7:22 PM 62.6 °F 48.2 °F 59% 30.19 in 10.0 mi NNE 8.1 mph - 0.00 in   Mostly Cloudy
7:53 PM 60.1 °F 55.0 °F 83% 29.96 in 10.0 mi NNW 4.6 mph - 0.01 in Rain , Thunderstorm Light Thunderstorms and Rain
8:10 PM 60.8 °F 53.6 °F 77% 30.20 in 10.0 mi SSW 8.1 mph - 0.00 in Rain , Thunderstorm Light Thunderstorms and Rain
8:53 PM 57.9 °F 54.0 °F 87% 29.98 in 10.0 mi SSE 17.3 mph - 0.01 in Rain , Thunderstorm Light Thunderstorms and Rain
9:03 PM 57.2 °F 53.6 °F 88% 30.20 in 10.0 mi South 18.4 mph - N/A Rain Light Rain
9:53 PM 61.0 °F 50.0 °F 67% 29.92 in 10.0 mi SSE 24.2 mph 35.7 mph 0.00 in Rain Light Rain
10:08 PM 57.2 °F 53.6 °F 88% 30.18 in 10.0 mi SSW 24.2 mph 32.2 mph 0.00 in Rain Light Rain
10:53 PM 57.9 °F 52.0 °F 81% 29.95 in 10.0 mi SE 17.3 mph 24.2 mph 0.00 in   Mostly Cloudy
11:33 PM 57.2 °F 51.8 °F 82% 30.20 in 10.0 mi SSW 17.3 mph 25.3 mph N/A   Overcast
11:53 PM 59.0 °F 51.1 °F 75% 29.97 in 10.0 mi South 20.7 mph 26.5 mph 0.00 in Rain , Thunderstorm Light Thunderstorms and Rain